[[{"header":{"parameterUnit":"m.s-1","parameterCategory":2,"la1":30.2991,"la2":30.254,"lo1":-89.0895,"lo2":-89.0444,"dy":0.0017,"dx":0.0017,"nx":28,"ny":28,"refTime":"2024-08-17T21:00:00:Z","depth":"0","parameterNumber":2,"parameterNumberName":"U-component_of_CURRENTS"},"data":[0,0,0,0,0,0,0,0,0,0,0,0,0,0,0,0,0,0,0,0,0,0,0,0,0,0,0,0,0,0,0,0,0,0,0,0,0,0,0,0,0,0,0,0,0,0,0,0,0,0,0,0,0,0,0,0,0,0,0.1855,0.1856,0,0.1854,0.1853,0.1853,0.1869,0.187,0.1871,0.1872,0.1849,0.1848,0.1847,0,0,0,0,0,0,0,0,0,0,0,0,0,0.1807,0.1808,0.1855,0.1856,0.1856,0.1854,0.1853,0.1853,0.1869,0.187,0.1871,0.1872,0.185,0.1848,0.1847,0,0,0,0,0,0,0,0,0,0,0,0,0,0.1815,0.1808,0.1855,0.1867,0.1868,0.1854,0.1853,0.1853,0.1869,0.187,0.1871,0.1872,0.185,0.1848,0.1846,0.181,0,0,0.184,0.1839,0,0,0,0,0,0,0,0,0.1815,0.1817,0.1865,0.1866,0.1867,0.1866,0.1829,0.1839,0.1869,0.1864,0.1872,0.1873,0.1855,0.1852,0.1844,0.1809,0.1808,0.184,0.1839,0.1838,0.1837,0,0,0,0,0,0,0,0.1814,0.1817,0.1851,0.1865,0.1867,0.185,0.1852,0.183,0.185,0.1865,0.1867,0.1873,0.1855,0.1846,0.1844,0.1808,0.184,0.1838,0.1837,0.1836,0.1783,0.1783,0,0,0,0,0,0,0.1825,0.1816,0.1851,0.1851,0.1848,0.185,0.1853,0.1862,0.185,0.1851,0.1872,0.1873,0.1849,0.1846,0.1843,0.1847,0.1838,0.1836,0.1835,0.1783,0.1783,0.1783,0,0,0,0,0,0,0.1824,0.1828,0.1851,0.1836,0.1839,0.1851,0.186,0.1862,0.1862,0.1856,0.1856,0.1872,0.185,0.1846,0.1835,0.1845,0.1835,0.1833,0.1783,0.1783,0.1783,0.1824,0,0,0,0,0,0,0.1822,0.1827,0.183,0.1837,0.184,0.1844,0.186,0.1861,0.1865,0.1867,0.1856,0.1855,0.185,0.1838,0.1833,0.1842,0.1832,0.1784,0.1783,0.1783,0.1823,0.1826,0.1827,0,0,0,0,0,0.182,0.1818,0.183,0.1834,0.1846,0.1844,0.1843,0.1852,0.1864,0.1857,0.1859,0.1856,0.1832,0.1836,0.183,0.1839,0.1784,0.1783,0.1783,0.1822,0.1825,0.1827,0,0,0,0,0,0,0.179,0.182,0.1833,0.1839,0.1844,0.1848,0.1843,0.1852,0.1846,0.185,0.1848,0.1846,0.1844,0.1826,0.1831,0.182,0.1808,0.1807,0.184,0.1843,0.1845,0.1868,0.183,0,0,0,0,0,0.1787,0.1798,0.1818,0.182,0.1825,0.1834,0.1834,0.1842,0.1843,0.1843,0.1838,0.1832,0.1833,0.1827,0.1817,0.1802,0.1834,0.1804,0.1806,0.1808,0.1822,0.1877,0.1887,0.1781,0.1781,0.1781,0,0,0.1774,0.1793,0.1798,0.1815,0.182,0.1827,0.1836,0.1836,0.1845,0.1839,0.1838,0.1837,0.183,0.1827,0.1823,0.1816,0.1857,0.1807,0.181,0.1823,0.1878,0.1888,0.1898,0.1781,0.1781,0.1781,0,0,0.1755,0.1773,0.1778,0.1789,0.1805,0.1813,0.1817,0.1824,0.1831,0.1827,0.1838,0.1846,0.1824,0.1836,0.1838,0.1839,0.1868,0.1829,0.1857,0.191,0.192,0.193,0.2001,0.2016,0.1827,0.1828,0.1828,0,0.1738,0.1757,0.1774,0.1784,0.1799,0.1811,0.1821,0.1823,0.1825,0.1843,0.1831,0.1852,0.1834,0.1869,0.1867,0.1847,0.189,0.1853,0.1917,0.1927,0.1936,0.2006,0.2023,0.1829,0.1829,0.1829,0.1829,0,0.1729,0.1747,0.1748,0.1777,0.1788,0.1795,0.1816,0.1825,0.1836,0.1852,0.1883,0.1874,0.1899,0.1885,0.1873,0.1927,0.1944,0.192,0.192,0.195,0.2021,0.2038,0.1832,0.1832,0.1831,0.1831,0,0,0.1692,0.1736,0.1739,0.1764,0.1792,0.1804,0.1823,0.1858,0.1901,0.1894,0.1953,0.194,0.196,0.1963,0.1959,0.1988,0.2077,0.1979,0.1981,0.2068,0.2224,0.2283,0.2307,0.2074,0.2076,0.2078,0.2256,0,0.1684,0.1711,0.1735,0.1765,0.1786,0.182,0.1847,0.1881,0.1916,0.1969,0.1984,0.2028,0.1984,0.2014,0.2037,0.2073,0.212,0.2033,0.2167,0.2172,0.2235,0.2327,0.2295,0.2455,0.2273,0.2275,0.2277,0,0.1675,0.17,0.1728,0.1793,0.1807,0.1827,0.1908,0.1933,0.2009,0.2043,0.2098,0.2125,0.2181,0.2131,0.223,0.2184,0.221,0.2227,0.2234,0.2289,0.2262,0.239,0.2492,0.2473,0.2303,0.2301,0.2299,0,0.1657,0.1702,0.1731,0.1748,0.1812,0.1843,0.1881,0.1957,0.2014,0.2107,0.2173,0.2238,0.2297,0.2333,0.2374,0.2316,0.2495,0.2418,0.2503,0.2508,0.2507,0.2508,0.262,0.2498,0.2497,0.2497,0.2496,0,0.1651,0.1676,0.1728,0.1747,0.1799,0.1846,0.1922,0.1974,0.2081,0.2167,0.2216,0.2317,0.235,0.2451,0.245,0.2566,0.2569,0.2551,0.2571,0.2521,0.2521,0.2522,0.2491,0.2504,0.2502,0.2501,0.25,0,0.163,0.1661,0.1702,0.1768,0.1791,0.183,0.194,0.2006,0.2106,0.2229,0.227,0.2415,0.2559,0.2614,0.271,0.2695,0.2728,0.28,0.2756,0.2767,0.2796,0.2767,0.2768,0.2672,0.2924,0.2927,0.2929,0,0.1621,0.1637,0.1705,0.1734,0.1765,0.1833,0.1886,0.1998,0.2083,0.2292,0.2359,0.2553,0.2689,0.2891,0.2924,0.3008,0.2869,0.3002,0.2867,0.2844,0.2826,0.2647,0.2549,0.2886,0.2888,0.2889,0.289,0,0.1601,0.1625,0.1657,0.1718,0.1772,0.1838,0.193,0.2006,0.2153,0.2276,0.2472,0.2609,0.2848,0.296,0.3095,0.311,0.29,0.3035,0.3016,0.2835,0.2642,0.2543,0.2731,0.2903,0.2902,0.2901,0.29,0.29,0.1579,0.1598,0.1644,0.1702,0.1763,0.1837,0.1881,0.2006,0.2141,0.2321,0.2491,0.2675,0.2913,0.3119,0.3121,0.3153,0.3023,0.3077,0.3058,0.2888,0.275,0.2992,0.3175,0.3175,0.3176,0.3176,0.3176,0,0.1549,0.1578,0.1628,0.1696,0.1745,0.1793,0.1903,0.1951,0.2083,0.2281,0.2453,0.2757,0.2933,0.3075,0.3242,0.3194,0.2948,0.3125,0.2854,0.276,0.3017,0.2972,0.3114,0.3114,0.3114,0.3114,0.3114,0.3114,0.1532,0.156,0.1592,0.1656,0.1704,0.1747,0.1791,0.188,0.2012,0.2228,0.2412,0.2605,0.3002,0.3308,0.3361,0.3258,0.2974,0.2892,0.2803,0.3012,0.3003,0.2995,0.2946,0.3079,0.3079,0.2414,0.241,0.2407]},{"header":{"parameterUnit":"m.s-1","parameterCategory":2,"la1":30.2991,"la2":30.254,"lo1":-89.0895,"lo2":-89.0444,"dy":0.0017,"dx":0.0017,"nx":28,"ny":28,"refTime":"2024-08-17T21:00:00:Z","depth":"0","parameterNumber":3,"parameterNumberName":"V-component_of_CURRENTS"},"data":[0,0,0,0,0,0,0,0,0,0,0,0,0,0,0,0,0,0,0,0,0,0,0,0,0,0,0,0,0,0,0,0,0,0,0,0,0,0,0,0,0,0,0,0,0,0,0,0,0,0,0,0,0,0,0,0,0,0,-0.024,-0.0241,0,-0.0278,-0.0279,-0.0279,-0.0312,-0.0312,-0.0312,-0.0313,-0.0402,-0.0404,-0.0406,0,0,0,0,0,0,0,0,0,0,0,0,0,-0.0225,-0.0225,-0.024,-0.0241,-0.0241,-0.0278,-0.0279,-0.028,-0.0312,-0.0312,-0.0312,-0.0313,-0.0402,-0.0404,-0.0407,0,0,0,0,0,0,0,0,0,0,0,0,0,-0.0245,-0.0225,-0.024,-0.0261,-0.0263,-0.0278,-0.0279,-0.028,-0.0312,-0.0312,-0.0312,-0.0313,-0.0401,-0.0404,-0.0407,-0.0418,0,0,-0.0417,-0.0418,0,0,0,0,0,0,0,0,-0.0244,-0.0246,-0.0258,-0.026,-0.0262,-0.029,-0.0306,-0.0328,-0.0311,-0.0294,-0.0313,-0.0313,-0.0369,-0.0374,-0.0381,-0.0423,-0.0426,-0.0417,-0.0419,-0.042,-0.0421,0,0,0,0,0,0,0,-0.0242,-0.0244,-0.0256,-0.0258,-0.0261,-0.0278,-0.0282,-0.0311,-0.033,-0.0296,-0.0298,-0.0301,-0.037,-0.0378,-0.0384,-0.0428,-0.0417,-0.042,-0.0422,-0.0423,-0.0513,-0.0513,0,0,0,0,0,0,-0.0234,-0.0243,-0.0255,-0.0257,-0.0253,-0.0278,-0.0282,-0.0281,-0.0329,-0.0336,-0.03,-0.0302,-0.0372,-0.038,-0.0387,-0.0411,-0.042,-0.0423,-0.0425,-0.0512,-0.0513,-0.0513,0,0,0,0,0,0,-0.0233,-0.0234,-0.0254,-0.0251,-0.0254,-0.0278,-0.0277,-0.0282,-0.029,-0.0332,-0.034,-0.0304,-0.0373,-0.0383,-0.0415,-0.0415,-0.0425,-0.0428,-0.0512,-0.0512,-0.0513,-0.0455,0,0,0,0,0,0,-0.0233,-0.0234,-0.023,-0.025,-0.0254,-0.0257,-0.0277,-0.0282,-0.0291,-0.0294,-0.0338,-0.0346,-0.0374,-0.041,-0.0418,-0.0419,-0.043,-0.0511,-0.0512,-0.0513,-0.0456,-0.0454,-0.0451,0,0,0,0,0,-0.0232,-0.0219,-0.0229,-0.0231,-0.0248,-0.0257,-0.0261,-0.028,-0.029,-0.029,-0.0324,-0.0345,-0.0422,-0.0413,-0.0422,-0.0424,-0.0511,-0.0512,-0.0513,-0.0457,-0.0454,-0.0451,0,0,0,0,0,0,-0.0205,-0.0221,-0.0233,-0.0225,-0.024,-0.0262,-0.0261,-0.0276,-0.0302,-0.0306,-0.0348,-0.0359,-0.0388,-0.0417,-0.0406,-0.0455,-0.0471,-0.0474,-0.0426,-0.0423,-0.0421,-0.041,-0.0433,0,0,0,0,0,-0.0198,-0.0196,-0.0216,-0.0209,-0.0215,-0.0239,-0.0245,-0.0258,-0.0282,-0.0293,-0.0324,-0.0363,-0.0399,-0.0418,-0.0451,-0.0476,-0.0509,-0.0486,-0.0484,-0.0481,-0.0481,-0.0545,-0.0548,-0.0517,-0.0517,-0.0517,0,0,-0.0185,-0.0194,-0.0193,-0.0204,-0.0218,-0.0218,-0.0244,-0.0247,-0.0249,-0.03,-0.0314,-0.0353,-0.0404,-0.0431,-0.0447,-0.0455,-0.0503,-0.0483,-0.048,-0.0481,-0.0546,-0.0549,-0.0552,-0.0517,-0.0517,-0.0517,0,0,-0.0157,-0.0168,-0.0158,-0.0168,-0.0183,-0.0198,-0.0198,-0.022,-0.0232,-0.0251,-0.0291,-0.033,-0.0377,-0.0415,-0.0441,-0.0446,-0.0486,-0.046,-0.0439,-0.05,-0.0503,-0.0506,-0.0525,-0.0531,-0.046,-0.046,-0.0459,0,-0.0141,-0.0133,-0.0156,-0.015,-0.0153,-0.0187,-0.0176,-0.0193,-0.0222,-0.0233,-0.0248,-0.033,-0.0369,-0.0414,-0.0418,-0.0439,-0.0471,-0.0441,-0.0496,-0.05,-0.0504,-0.0523,-0.053,-0.0457,-0.0457,-0.0457,-0.0458,0,-0.0109,-0.0104,-0.0097,-0.0104,-0.0111,-0.0106,-0.0131,-0.0142,-0.0163,-0.0184,-0.0227,-0.0287,-0.0336,-0.0358,-0.039,-0.044,-0.045,-0.0482,-0.0498,-0.0503,-0.0523,-0.0531,-0.0453,-0.0454,-0.0455,-0.0455,0,0,-0.007,-0.0073,-0.0072,-0.0064,-0.0085,-0.0082,-0.0091,-0.0106,-0.0107,-0.0153,-0.0167,-0.0241,-0.0277,-0.031,-0.0362,-0.0421,-0.0467,-0.0461,-0.0465,-0.0468,-0.0579,-0.0553,-0.0559,-0.0516,-0.0518,-0.0519,-0.0571,0,-0.0038,-0.0012,-0.0027,-0.0004,0.0007,-0.0026,-0.0027,-0.0048,-0.0074,-0.0094,-0.017,-0.0201,-0.0258,-0.028,-0.035,-0.0439,-0.0491,-0.0448,-0.0584,-0.0587,-0.0555,-0.0569,-0.0547,-0.059,-0.0579,-0.058,-0.0581,0,-0.0003,0.001,0.0039,0.005,0.0052,0.0056,0.0048,0.0042,-0.0003,-0.0024,-0.0081,-0.0132,-0.0214,-0.0264,-0.0419,-0.0392,-0.0479,-0.0552,-0.0556,-0.0561,-0.0577,-0.0591,-0.0605,-0.0795,-0.0594,-0.0593,-0.0592,0,0.0039,0.0058,0.0085,0.0087,0.0089,0.0094,0.009,0.0062,0.0074,0.0018,0.0022,-0.0091,-0.0129,-0.0273,-0.0404,-0.0422,-0.0569,-0.0611,-0.0666,-0.0663,-0.0686,-0.0682,-0.0892,-0.0726,-0.0726,-0.0726,-0.0726,0,0.0079,0.0102,0.0108,0.0124,0.016,0.0139,0.0166,0.0148,0.0136,0.0162,0.0063,0.0067,-0.0139,-0.0234,-0.0382,-0.0529,-0.055,-0.0661,-0.0685,-0.0661,-0.0655,-0.0853,-0.0961,-0.0728,-0.0728,-0.0727,-0.0727,0,0.0121,0.0122,0.016,0.0174,0.0181,0.0206,0.0233,0.0258,0.0235,0.0264,0.0257,0.018,0.0062,-0.0124,-0.0338,-0.0472,-0.0733,-0.068,-0.061,-0.0626,-0.0856,-0.096,-0.1186,-0.1263,-0.0758,-0.0758,-0.0758,0,0.0145,0.0168,0.0203,0.0235,0.0244,0.0276,0.0307,0.0303,0.0348,0.0351,0.0387,0.0294,0.0269,-0.0013,-0.028,-0.0522,-0.0715,-0.067,-0.0713,-0.0868,-0.1004,-0.1084,-0.1138,-0.0711,-0.071,-0.071,-0.0709,0,0.0198,0.0206,0.024,0.0304,0.0346,0.04,0.0452,0.0513,0.0523,0.0565,0.0624,0.0608,0.0352,0.0135,-0.0203,-0.0396,-0.0802,-0.0667,-0.0875,-0.1021,-0.108,-0.1163,-0.065,-0.0705,-0.0706,-0.0706,-0.0706,-0.0706,0.0238,0.0277,0.0322,0.0387,0.0443,0.0536,0.0614,0.0695,0.0796,0.0904,0.0842,0.0869,0.0504,0.006,-0.023,-0.0754,-0.0777,-0.0919,-0.1038,-0.1108,-0.118,-0.0628,-0.0683,-0.0684,-0.0684,-0.0684,-0.0684,0,0.0297,0.0342,0.0407,0.0496,0.0583,0.0592,0.0725,0.0831,0.0995,0.1085,0.1151,0.0992,0.0542,0.0047,-0.0643,-0.1042,-0.121,-0.1285,-0.143,-0.1473,-0.1025,-0.102,-0.1094,-0.1094,-0.1094,-0.1094,-0.1094,-0.1094,0.0332,0.041,0.0448,0.0605,0.0676,0.0823,0.0919,0.1079,0.1197,0.1357,0.139,0.1376,0.0996,-0.0318,-0.1247,-0.1481,-0.177,-0.1834,-0.1987,-0.1721,-0.1697,-0.1674,-0.1698,-0.1912,-0.1913,-0.2375,-0.238,-0.2384]}],[{"header":{"parameterUnit":"m.s-1","parameterCategory":2,"la1":30.2991,"la2":30.254,"lo1":-89.0895,"lo2":-89.0444,"dy":0.0017,"dx":0.0017,"nx":28,"ny":28,"refTime":"2024-08-17T21:00:00:Z","depth":"2","parameterNumber":2,"parameterNumberName":"U-component_of_CURRENTS"},"data":[0,0,0,0,0,0,0,0,0,0,0,0,0,0,0,0,0,0,0,0,0,0,0,0,0,0,0,0,0,0,0,0,0,0,0,0,0,0,0,0,0,0,0,0,0,0,0,0,0,0,0,0,0,0,0,0,0,0,0.1735,0.1735,0,0.1733,0.1732,0.1732,0.1751,0.1751,0.1752,0.1753,0.1743,0.1741,0.174,0,0,0,0,0,0,0,0,0,0,0,0,0,0.1686,0.1687,0.1735,0.1735,0.1735,0.1733,0.1732,0.1732,0.175,0.1752,0.1753,0.1754,0.1743,0.1742,0.174,0,0,0,0,0,0,0,0,0,0,0,0,0,0.1694,0.1687,0.1735,0.1747,0.1748,0.1733,0.1732,0.1732,0.175,0.1752,0.1753,0.1754,0.1743,0.1742,0.174,0.1704,0,0,0.1735,0.1734,0,0,0,0,0,0,0,0,0.1694,0.1696,0.1745,0.1746,0.1748,0.1746,0.1711,0.1723,0.175,0.1746,0.1753,0.1755,0.1745,0.1743,0.1734,0.1704,0.1703,0.1735,0.1734,0.1733,0.1733,0,0,0,0,0,0,0,0.1693,0.1696,0.173,0.1745,0.1747,0.1729,0.1732,0.1713,0.1735,0.1746,0.1748,0.1754,0.1745,0.1736,0.1734,0.1703,0.1735,0.1734,0.1733,0.1732,0.169,0.169,0,0,0,0,0,0,0.1704,0.1695,0.173,0.173,0.1728,0.173,0.1733,0.1742,0.1735,0.1736,0.1753,0.1755,0.1738,0.1736,0.1734,0.1744,0.1733,0.1732,0.1731,0.1691,0.169,0.169,0,0,0,0,0,0,0.1703,0.1707,0.173,0.1715,0.1718,0.173,0.174,0.1742,0.1745,0.1741,0.1742,0.1756,0.1739,0.1736,0.1731,0.1742,0.1731,0.173,0.1691,0.169,0.169,0.173,0,0,0,0,0,0,0.1701,0.1706,0.1711,0.1716,0.1719,0.1724,0.174,0.1741,0.1747,0.175,0.1744,0.1744,0.174,0.1733,0.1729,0.1739,0.1728,0.1691,0.1691,0.169,0.1729,0.1731,0.1733,0,0,0,0,0,0.1699,0.1698,0.1711,0.1715,0.1727,0.1724,0.1722,0.1733,0.1746,0.1741,0.1746,0.1744,0.1729,0.1732,0.1727,0.1737,0.1691,0.1691,0.169,0.1728,0.1731,0.1733,0,0,0,0,0,0,0.1672,0.1701,0.1715,0.1721,0.1726,0.1729,0.1725,0.1734,0.1732,0.1739,0.1739,0.1738,0.174,0.1725,0.1728,0.1723,0.1711,0.1709,0.1741,0.1743,0.1745,0.1769,0.1727,0,0,0,0,0,0.167,0.1682,0.1701,0.1704,0.171,0.1719,0.1718,0.1727,0.173,0.1731,0.1729,0.1728,0.173,0.1728,0.172,0.1709,0.1742,0.1712,0.1714,0.1716,0.1731,0.1788,0.1798,0.1689,0.1689,0.1689,0,0,0.166,0.1678,0.1684,0.17,0.1705,0.1712,0.1721,0.1723,0.1731,0.1728,0.1732,0.1733,0.1729,0.1729,0.1728,0.1721,0.1766,0.1716,0.1718,0.1732,0.1789,0.1801,0.181,0.1689,0.1689,0.1689,0,0,0.1643,0.1663,0.1668,0.1678,0.1694,0.1701,0.1706,0.1714,0.1721,0.1721,0.1733,0.1745,0.1728,0.1741,0.1744,0.1747,0.1778,0.1739,0.1768,0.1824,0.1834,0.1844,0.1914,0.1929,0.1738,0.1738,0.1738,0,0.1629,0.1648,0.1664,0.1674,0.1688,0.1702,0.1711,0.1714,0.1718,0.1737,0.1727,0.1754,0.1739,0.1776,0.1775,0.1756,0.18,0.1762,0.183,0.184,0.185,0.1919,0.1936,0.174,0.174,0.174,0.1739,0,0.1621,0.1639,0.1641,0.1669,0.1679,0.1687,0.1707,0.1718,0.1732,0.1748,0.1784,0.1777,0.1806,0.1793,0.1782,0.1838,0.1855,0.1832,0.1832,0.1864,0.1934,0.1951,0.1743,0.1742,0.1741,0.1741,0,0,0.1588,0.1629,0.1632,0.1657,0.1685,0.1696,0.1717,0.1751,0.1795,0.1792,0.1853,0.1844,0.1867,0.1871,0.1869,0.19,0.1991,0.1893,0.1895,0.1979,0.2141,0.2163,0.2183,0.199,0.1993,0.1995,0.2171,0,0.1581,0.1606,0.1629,0.1659,0.1679,0.1713,0.174,0.1775,0.1811,0.1866,0.1885,0.1933,0.1891,0.1923,0.1948,0.1987,0.2035,0.1947,0.2084,0.2089,0.2117,0.2202,0.2009,0.2151,0.2188,0.219,0.2192,0,0.1572,0.1596,0.1623,0.1687,0.17,0.1721,0.1802,0.1828,0.1906,0.1941,0.2,0.203,0.209,0.2042,0.2145,0.2098,0.2127,0.2145,0.2152,0.2172,0.2141,0.212,0.218,0.2221,0.2218,0.2216,0.2214,0,0.1555,0.1598,0.1627,0.1644,0.1707,0.1738,0.1776,0.1854,0.1911,0.2007,0.2075,0.2143,0.2207,0.2246,0.2289,0.2232,0.2412,0.2337,0.2391,0.2393,0.2255,0.2241,0.2422,0.2421,0.2421,0.242,0.242,0,0.155,0.1574,0.1626,0.1644,0.1696,0.1742,0.1821,0.1872,0.1981,0.2068,0.212,0.2219,0.2262,0.2363,0.2364,0.2463,0.2487,0.2435,0.2451,0.2264,0.2249,0.2315,0.23,0.2427,0.2426,0.2424,0.2423,0,0.153,0.1561,0.16,0.1666,0.169,0.173,0.1841,0.1907,0.2008,0.2132,0.2175,0.2318,0.2458,0.2518,0.2616,0.2585,0.2652,0.2675,0.2468,0.2457,0.2572,0.2557,0.275,0.2753,0.2755,0.2756,0.2758,0,0.1522,0.1538,0.1605,0.1633,0.1664,0.1734,0.1788,0.1901,0.1986,0.2192,0.2258,0.2448,0.2553,0.2737,0.2751,0.2816,0.279,0.2655,0.2493,0.2616,0.2612,0.2593,0.2575,0.2328,0.2326,0.2324,0.2323,0,0.1504,0.1527,0.1559,0.1619,0.1673,0.1739,0.1832,0.1906,0.2054,0.2168,0.2351,0.2455,0.2653,0.2652,0.2753,0.274,0.2622,0.2623,0.2831,0.2278,0.2233,0.2224,0.2217,0.2307,0.2309,0.231,0.2311,0.2311,0.1484,0.1502,0.1546,0.1603,0.1665,0.1735,0.1778,0.1889,0.2013,0.2159,0.2323,0.2406,0.2473,0.2541,0.2514,0.2503,0.265,0.2491,0.249,0.2492,0.2415,0.2376,0.2464,0.2466,0.2468,0.247,0.2472,0,0.1453,0.1483,0.1531,0.1596,0.1642,0.1694,0.18,0.1823,0.1926,0.2067,0.2193,0.2092,0.2141,0.221,0.2178,0.2205,0.2102,0.2109,0.1934,0.1956,0.1974,0.186,0.1768,0.1765,0.1762,0.176,0,0,0.1436,0.1461,0.1491,0.155,0.16,0.1636,0.1677,0.1713,0.1792,0.1823,0.186,0.2049,0.2153,0.191,0.1916,0.1834,0.1859,0.1771,0.235,0.2167,0.218,0.2233,0.2091,0,0,0,0,0]},{"header":{"parameterUnit":"m.s-1","parameterCategory":2,"la1":30.2991,"la2":30.254,"lo1":-89.0895,"lo2":-89.0444,"dy":0.0017,"dx":0.0017,"nx":28,"ny":28,"refTime":"2024-08-17T21:00:00:Z","depth":"2","parameterNumber":3,"parameterNumberName":"V-component_of_CURRENTS"},"data":[0,0,0,0,0,0,0,0,0,0,0,0,0,0,0,0,0,0,0,0,0,0,0,0,0,0,0,0,0,0,0,0,0,0,0,0,0,0,0,0,0,0,0,0,0,0,0,0,0,0,0,0,0,0,0,0,0,0,-0.0114,-0.0114,0,-0.0154,-0.0155,-0.0155,-0.0188,-0.0189,-0.0189,-0.0189,-0.0281,-0.0283,-0.0285,0,0,0,0,0,0,0,0,0,0,0,0,0,-0.0095,-0.0095,-0.0114,-0.0115,-0.0115,-0.0154,-0.0155,-0.0155,-0.0188,-0.0189,-0.0189,-0.0189,-0.028,-0.0283,-0.0285,0,0,0,0,0,0,0,0,0,0,0,0,0,-0.0117,-0.0095,-0.0114,-0.0136,-0.0138,-0.0154,-0.0155,-0.0156,-0.0188,-0.0189,-0.0189,-0.019,-0.0279,-0.0282,-0.0286,-0.0298,0,0,-0.0296,-0.0297,0,0,0,0,0,0,0,0,-0.0115,-0.0117,-0.0132,-0.0134,-0.0137,-0.0166,-0.0182,-0.0205,-0.0188,-0.017,-0.0189,-0.019,-0.0246,-0.0252,-0.0259,-0.0302,-0.0306,-0.0296,-0.0298,-0.0299,-0.03,0,0,0,0,0,0,0,-0.0114,-0.0116,-0.0131,-0.0132,-0.0135,-0.0153,-0.0156,-0.0186,-0.0207,-0.0172,-0.0174,-0.0177,-0.0248,-0.0256,-0.0262,-0.0307,-0.0296,-0.0299,-0.0301,-0.0302,-0.0396,-0.0397,0,0,0,0,0,0,-0.0105,-0.0114,-0.013,-0.0132,-0.0126,-0.0153,-0.0157,-0.0157,-0.0206,-0.0213,-0.0177,-0.0178,-0.025,-0.0258,-0.0265,-0.0294,-0.0299,-0.0302,-0.0304,-0.0396,-0.0396,-0.0397,0,0,0,0,0,0,-0.0105,-0.0106,-0.0128,-0.0124,-0.0128,-0.0152,-0.0153,-0.0157,-0.0169,-0.0209,-0.0217,-0.0183,-0.0251,-0.0261,-0.0296,-0.0297,-0.0304,-0.0307,-0.0395,-0.0396,-0.0396,-0.0343,0,0,0,0,0,0,-0.0104,-0.0105,-0.0104,-0.0123,-0.0128,-0.0135,-0.0152,-0.0158,-0.017,-0.0172,-0.0217,-0.0226,-0.0252,-0.0291,-0.0299,-0.0302,-0.0309,-0.0394,-0.0395,-0.0396,-0.0344,-0.0342,-0.034,0,0,0,0,0,-0.0103,-0.0093,-0.0103,-0.0105,-0.0124,-0.0134,-0.0138,-0.0158,-0.0169,-0.0171,-0.0205,-0.0225,-0.0303,-0.0293,-0.0303,-0.0307,-0.0394,-0.0395,-0.0396,-0.0345,-0.0342,-0.034,0,0,0,0,0,0,-0.008,-0.0096,-0.0107,-0.0102,-0.0118,-0.014,-0.0142,-0.0157,-0.0184,-0.0189,-0.0229,-0.024,-0.0271,-0.03,-0.0288,-0.0339,-0.0353,-0.0356,-0.0311,-0.0309,-0.0307,-0.0295,-0.0312,0,0,0,0,0,-0.0074,-0.0074,-0.0093,-0.009,-0.0096,-0.012,-0.0128,-0.0141,-0.0166,-0.0178,-0.0209,-0.0248,-0.0283,-0.0303,-0.0336,-0.0362,-0.0394,-0.0374,-0.0372,-0.037,-0.0369,-0.0432,-0.0435,-0.0401,-0.0401,-0.0401,0,0,-0.0064,-0.0073,-0.0073,-0.0085,-0.01,-0.0102,-0.0126,-0.0133,-0.0136,-0.0184,-0.0201,-0.024,-0.0289,-0.0317,-0.0334,-0.0341,-0.0392,-0.0371,-0.0369,-0.0369,-0.0433,-0.0437,-0.044,-0.0402,-0.0401,-0.0401,0,0,-0.0041,-0.0052,-0.0045,-0.0055,-0.0072,-0.0087,-0.0088,-0.0111,-0.0124,-0.0145,-0.0183,-0.0222,-0.027,-0.0305,-0.033,-0.0339,-0.0377,-0.0353,-0.0334,-0.0395,-0.0398,-0.0401,-0.0421,-0.0426,-0.0353,-0.0353,-0.0353,0,-0.0029,-0.0022,-0.0044,-0.004,-0.0044,-0.0077,-0.0069,-0.0086,-0.0118,-0.0128,-0.0144,-0.0225,-0.0264,-0.0307,-0.0312,-0.0333,-0.0364,-0.0334,-0.0391,-0.0395,-0.0399,-0.0419,-0.0426,-0.0351,-0.0351,-0.0351,-0.0352,0,-0.0001,0.0002,0.0007,-0.0001,-0.0008,-0.0006,-0.0031,-0.0043,-0.0065,-0.0085,-0.0128,-0.0187,-0.0234,-0.0258,-0.0288,-0.0337,-0.0347,-0.0378,-0.0392,-0.0399,-0.0419,-0.0427,-0.0347,-0.0348,-0.0349,-0.035,0,0,0.0032,0.0028,0.0028,0.0036,0.0014,0.0016,0.0006,-0.0009,-0.001,-0.0058,-0.0071,-0.0145,-0.018,-0.0212,-0.0262,-0.032,-0.0368,-0.036,-0.0364,-0.0367,-0.048,-0.0447,-0.0452,-0.0416,-0.0418,-0.0419,-0.0472,0,0.0059,0.0082,0.0068,0.0089,0.0099,0.0068,0.0066,0.0045,0.002,-0.0001,-0.0074,-0.0105,-0.0161,-0.0184,-0.0252,-0.034,-0.0392,-0.0349,-0.0482,-0.0485,-0.0447,-0.0462,-0.0431,-0.0473,-0.048,-0.0481,-0.0482,0,0.0089,0.0102,0.0128,0.014,0.0142,0.0145,0.0138,0.0132,0.0089,0.0068,0.0013,-0.0037,-0.0118,-0.0169,-0.0321,-0.0294,-0.0382,-0.0454,-0.0458,-0.0453,-0.0468,-0.0474,-0.0488,-0.0496,-0.0495,-0.0494,-0.0493,0,0.0128,0.0146,0.0171,0.0173,0.0176,0.018,0.0177,0.0151,0.0164,0.0109,0.0114,0.0003,-0.0035,-0.0178,-0.0308,-0.0326,-0.047,-0.0512,-0.0561,-0.0558,-0.057,-0.0565,-0.0627,-0.0627,-0.0627,-0.0627,-0.0627,0,0.0165,0.0186,0.0192,0.0207,0.0243,0.0224,0.0251,0.0233,0.0224,0.0251,0.0152,0.0157,-0.0046,-0.0139,-0.0286,-0.0428,-0.0452,-0.0555,-0.0578,-0.0547,-0.054,-0.0598,-0.0594,-0.0629,-0.0629,-0.0628,-0.0628,0,0.0202,0.0203,0.024,0.0254,0.0262,0.0286,0.0315,0.0342,0.0319,0.035,0.0342,0.0267,0.015,-0.0032,-0.0244,-0.0371,-0.0528,-0.0574,-0.0496,-0.0509,-0.058,-0.0573,-0.0644,-0.0643,-0.0643,-0.0642,-0.0642,0,0.0224,0.0245,0.028,0.0312,0.032,0.0353,0.0384,0.0383,0.043,0.0434,0.047,0.0378,0.0349,0.0075,-0.0183,-0.0419,-0.0478,-0.0545,-0.0584,-0.0571,-0.0587,-0.058,-0.0574,-0.0572,-0.0571,-0.0571,-0.057,0,0.0272,0.028,0.0313,0.0376,0.0418,0.0475,0.0527,0.0588,0.0602,0.0642,0.0697,0.0676,0.0426,0.0207,-0.0118,-0.0289,-0.0508,-0.0536,-0.0569,-0.0561,-0.0506,-0.052,-0.0516,-0.0564,-0.0564,-0.0565,-0.0565,-0.0566,0.0309,0.0347,0.0392,0.0455,0.0512,0.0605,0.0682,0.0759,0.0858,0.0941,0.089,0.0862,0.0576,0.0188,-0.0106,-0.043,-0.0433,-0.0556,-0.0558,-0.0561,-0.0531,-0.0478,-0.0523,-0.0523,-0.0524,-0.0524,-0.0524,0,0.0365,0.0408,0.0472,0.0559,0.0645,0.0657,0.079,0.0883,0.1033,0.1075,0.1119,0.0871,0.0611,0.0275,-0.0185,-0.0456,-0.0507,-0.0549,-0.0556,-0.0559,-0.0563,-0.0534,-0.0527,-0.0527,-0.0528,-0.0529,0,0,0.0397,0.0473,0.051,0.0663,0.0732,0.0874,0.0969,0.11,0.1176,0.1251,0.1223,0.1135,0.0724,0.0395,0.0013,-0.0251,-0.0344,-0.031,-0.0277,-0.0241,-0.0241,-0.0534,-0.0489,0,0,0,0,0]}],[{"header":{"parameterUnit":"m.s-1","parameterCategory":2,"la1":30.2991,"la2":30.254,"lo1":-89.0895,"lo2":-89.0444,"dy":0.0017,"dx":0.0017,"nx":28,"ny":28,"refTime":"2024-08-17T21:00:00:Z","depth":"4","parameterNumber":2,"parameterNumberName":"U-component_of_CURRENTS"},"data":[0,0,0,0,0,0,0,0,0,0,0,0,0,0,0,0,0,0,0,0,0,0,0,0,0,0,0,0,0,0,0,0,0,0,0,0,0,0,0,0,0,0,0,0,0,0,0,0,0,0,0,0,0,0,0,0,0,0,0.0927,0.0928,0,0.1011,0.1011,0.1012,0.1072,0.1073,0.1073,0.1074,0.1115,0.1116,0.1117,0,0,0,0,0,0,0,0,0,0,0,0,0,0.0836,0.0837,0.0927,0.0928,0.0929,0.101,0.1012,0.1013,0.1072,0.1073,0.1074,0.1074,0.1115,0.1116,0.1117,0,0,0,0,0,0,0,0,0,0,0,0,0,0.0892,0.0837,0.0927,0.0969,0.0974,0.101,0.1012,0.1013,0.1072,0.1073,0.1074,0.1075,0.1115,0.1116,0.1117,0.1106,0,0,0.1119,0.112,0,0,0,0,0,0,0,0,0.0889,0.0895,0.0962,0.0966,0.0972,0.1032,0.0995,0.1042,0.1072,0.1034,0.1074,0.1075,0.1083,0.1087,0.1101,0.1108,0.111,0.1119,0.112,0.112,0.1121,0,0,0,0,0,0,0,0.0885,0.0892,0.0959,0.0963,0.0969,0.099,0.0999,0.1004,0.1052,0.1037,0.1042,0.1052,0.1086,0.11,0.1102,0.111,0.1119,0.112,0.1121,0.1121,0.116,0.1161,0,0,0,0,0,0,0.0874,0.0889,0.0957,0.0962,0.0932,0.0991,0.1001,0.1012,0.1053,0.1061,0.1051,0.1055,0.1098,0.1101,0.1104,0.1149,0.112,0.1121,0.1122,0.116,0.116,0.1161,0,0,0,0,0,0,0.0872,0.088,0.0953,0.0928,0.0939,0.0991,0.1003,0.1013,0.1053,0.1064,0.1071,0.1084,0.1099,0.1102,0.1117,0.1149,0.1122,0.1122,0.1159,0.116,0.116,0.1203,0,0,0,0,0,0,0.0869,0.0878,0.0896,0.0927,0.094,0.0989,0.1003,0.1014,0.1056,0.1062,0.1094,0.1097,0.1099,0.1116,0.1118,0.1149,0.1123,0.1158,0.1159,0.116,0.1201,0.1205,0.1209,0,0,0,0,0,0.0865,0.0882,0.0897,0.0906,0.0958,0.099,0.0999,0.1038,0.1057,0.1077,0.109,0.1098,0.1124,0.1117,0.1119,0.1152,0.1158,0.1159,0.116,0.1199,0.1204,0.1209,0,0,0,0,0,0,0.0853,0.089,0.0907,0.0935,0.0968,0.1001,0.1029,0.1051,0.1079,0.1091,0.1098,0.1102,0.1131,0.1127,0.1119,0.1164,0.1145,0.1147,0.1174,0.1179,0.1182,0.1203,0.1124,0,0,0,0,0,0.0857,0.0883,0.0915,0.0942,0.0959,0.0998,0.1022,0.1048,0.1071,0.1088,0.1107,0.1122,0.1133,0.1145,0.1154,0.1173,0.1188,0.1196,0.12,0.1203,0.122,0.1265,0.1276,0.1164,0.1164,0.1164,0,0,0.086,0.0886,0.09,0.0942,0.0973,0.1002,0.1016,0.1059,0.1086,0.1084,0.113,0.1138,0.114,0.1165,0.1179,0.117,0.1239,0.1204,0.1208,0.1223,0.1268,0.1279,0.1289,0.1165,0.1165,0.1165,0,0,0.0872,0.0902,0.0927,0.0954,0.1004,0.1024,0.1039,0.1084,0.1112,0.1144,0.1151,0.1174,0.1196,0.1205,0.1209,0.1237,0.1259,0.1247,0.1286,0.1329,0.134,0.1349,0.1372,0.1383,0.1249,0.1249,0.1249,0,0.0878,0.0912,0.0939,0.097,0.0998,0.1034,0.1064,0.1092,0.1137,0.1157,0.1166,0.1212,0.1216,0.1243,0.126,0.1249,0.1275,0.1269,0.1337,0.1346,0.1355,0.1377,0.1388,0.1251,0.1251,0.125,0.125,0,0.0903,0.0939,0.0958,0.1006,0.1035,0.1071,0.1105,0.1143,0.1179,0.1203,0.1251,0.126,0.1292,0.1295,0.1291,0.1352,0.135,0.1338,0.1329,0.1369,0.1389,0.14,0.1254,0.1253,0.1253,0.1252,0,0,0.0895,0.0962,0.0973,0.1003,0.106,0.1085,0.1132,0.1178,0.1214,0.126,0.1311,0.1334,0.1357,0.1364,0.1366,0.1403,0.1481,0.141,0.1411,0.1441,0.158,0.1491,0.1494,0.1494,0.1496,0.1498,0.1566,0,0.0914,0.097,0.1,0.1055,0.1086,0.113,0.1168,0.1215,0.1254,0.131,0.1339,0.1389,0.1376,0.1411,0.1446,0.148,0.1516,0.1464,0.1531,0.1532,0.1455,0.1506,0.1506,0.1574,0.1577,0.1578,0.158,0,0.093,0.0968,0.1023,0.1086,0.1105,0.1142,0.1212,0.1252,0.1321,0.1362,0.1416,0.1445,0.1515,0.1502,0.1585,0.1561,0.1584,0.1598,0.1601,0.1516,0.1465,0.1528,0.16,0.1599,0.1597,0.1596,0.1595,0,0.0912,0.0983,0.1029,0.1052,0.1125,0.1164,0.1209,0.1272,0.1314,0.1411,0.1462,0.1527,0.1595,0.1634,0.1683,0.1651,0.1776,0.1722,0.1653,0.1646,0.1688,0.1677,0.1785,0.1785,0.1785,0.1785,0.1784,0,0.0913,0.0953,0.1029,0.1054,0.111,0.1166,0.1224,0.1284,0.1369,0.1419,0.1497,0.1547,0.1643,0.1716,0.1726,0.174,0.1813,0.1678,0.1668,0.17,0.169,0.1695,0.1684,0.1787,0.1787,0.1786,0.1786,0,0.0887,0.0939,0.0993,0.1076,0.1105,0.1148,0.1237,0.1271,0.1371,0.1448,0.1497,0.1612,0.1693,0.1763,0.1844,0.1796,0.1813,0.1798,0.1849,0.1837,0.1634,0.1624,0.1699,0.1697,0.1695,0.1693,0.1691,0,0.0878,0.0905,0.0997,0.1026,0.1068,0.1132,0.117,0.127,0.1307,0.1456,0.149,0.1623,0.168,0.1728,0.1796,0.1823,0.1798,0.1803,0.1691,0.1648,0.163,0.1623,0.1616,0.1688,0.1688,0.1687,0.1687,0,0.0853,0.0895,0.0935,0.0994,0.1042,0.1079,0.1146,0.1169,0.1281,0.1387,0.1458,0.1512,0.1604,0.1657,0.1728,0.1727,0.1794,0.1781,0.1782,0.1677,0.1636,0.1619,0.1614,0.168,0.1681,0.1681,0.1682,0,0.0831,0.0849,0.0904,0.0948,0.1,0.1015,0.1051,0.1101,0.1158,0.1322,0.1339,0.1466,0.1584,0.1608,0.1654,0.1677,0.1616,0.1553,0.1565,0.1574,0.1503,0.143,0.1419,0,0,0,0,0,0.0802,0.0814,0.085,0.0886,0.093,0.0965,0.103,0.1065,0.1172,0.1193,0.1266,0.1336,0.141,0.1472,0.1465,0.1575,0.1618,0.1559,0.1549,0.1641,0.1649,0.1577,0,0,0,0,0,0,0.078,0.0814,0.0828,0.0824,0.0838,0.0874,0.0914,0.0982,0.0994,0.1116,0.1161,0.1266,0.1352,0.1411,0.1445,0.1465,0.1433,0.1641,0.1638,0.1637,0.1644,0.165,0.1579,0,0,0,0,0]},{"header":{"parameterUnit":"m.s-1","parameterCategory":2,"la1":30.2991,"la2":30.254,"lo1":-89.0895,"lo2":-89.0444,"dy":0.0017,"dx":0.0017,"nx":28,"ny":28,"refTime":"2024-08-17T21:00:00:Z","depth":"4","parameterNumber":3,"parameterNumberName":"V-component_of_CURRENTS"},"data":[0,0,0,0,0,0,0,0,0,0,0,0,0,0,0,0,0,0,0,0,0,0,0,0,0,0,0,0,0,0,0,0,0,0,0,0,0,0,0,0,0,0,0,0,0,0,0,0,0,0,0,0,0,0,0,0,0,0,0.019,0.019,0,0.0126,0.0125,0.0124,0.01,0.01,0.0101,0.0101,0.0068,0.0067,0.0066,0,0,0,0,0,0,0,0,0,0,0,0,0,0.0229,0.0229,0.019,0.019,0.0189,0.0126,0.0125,0.0124,0.01,0.01,0.0101,0.0101,0.0068,0.0067,0.0066,0,0,0,0,0,0,0,0,0,0,0,0,0,0.0192,0.0229,0.0191,0.017,0.0168,0.0126,0.0125,0.0124,0.01,0.0101,0.0101,0.0101,0.0069,0.0067,0.0066,0.0045,0,0,0.006,0.0059,0,0,0,0,0,0,0,0,0.0195,0.0191,0.0174,0.0172,0.0169,0.0123,0.0127,0.01,0.01,0.0124,0.0101,0.0102,0.009,0.0086,0.0071,0.0043,0.0042,0.006,0.0059,0.0058,0.0058,0,0,0,0,0,0,0,0.0197,0.0193,0.0164,0.0173,0.017,0.0143,0.0139,0.0121,0.0105,0.0122,0.0121,0.0116,0.0089,0.0073,0.007,0.0042,0.006,0.0058,0.0057,0.0057,0.0003,0.0002,0,0,0,0,0,0,0.0211,0.0196,0.0166,0.0162,0.0185,0.0142,0.0138,0.0136,0.0104,0.01,0.0115,0.0115,0.0075,0.0072,0.0069,0.0049,0.0058,0.0056,0.0055,0.0003,0.0003,0.0002,0,0,0,0,0,0,0.0212,0.0209,0.0168,0.0178,0.0171,0.0142,0.014,0.0135,0.0118,0.0099,0.0095,0.0105,0.0076,0.0071,0.0056,0.0048,0.0056,0.0054,0.0003,0.0003,0.0002,0.0006,0,0,0,0,0,0,0.0213,0.021,0.021,0.0179,0.0171,0.0143,0.0139,0.0133,0.0115,0.0114,0.0089,0.0086,0.0076,0.0059,0.0055,0.0045,0.0053,0.0004,0.0003,0.0002,0.0006,0.0005,0.0005,0,0,0,0,0,0.0215,0.0211,0.021,0.0206,0.0174,0.0143,0.0136,0.0115,0.0114,0.0103,0.0092,0.0087,0.0051,0.0057,0.0052,0.0042,0.0004,0.0003,0.0003,0.0006,0.0005,0.0005,0,0,0,0,0,0,0.0225,0.0208,0.0206,0.0197,0.0174,0.0139,0.0126,0.0114,0.0094,0.0096,0.0081,0.0077,0.006,0.0051,0.0058,0.0025,0.0027,0.0025,0.0031,0.003,0.003,0.0045,0.0051,0,0,0,0,0,0.023,0.0225,0.0201,0.0193,0.0183,0.0155,0.014,0.0126,0.0106,0.0097,0.008,0.0065,0.005,0.0042,0.0026,0.0007,0.0006,-0.0003,-0.0003,-0.0004,0.0005,0.0001,0.0001,-0.0001,-0.0001,-0.0001,0,0,0.0233,0.0221,0.0219,0.0195,0.0175,0.016,0.0146,0.0123,0.0113,0.0097,0.0078,0.006,0.0045,0.0025,0.0017,0.0018,-0.0008,-0.0005,-0.0005,0.0004,0.0,0.0,0.0001,-0.0001,-0.0001,-0.0001,0,0,0.0231,0.0225,0.0219,0.0202,0.0176,0.0159,0.0155,0.0121,0.0109,0.0088,0.0077,0.0058,0.003,0.0017,0.0009,-0.0005,-0.0011,-0.0015,-0.0007,-0.0011,-0.0011,-0.001,-0.0024,-0.0024,-0.0015,-0.0015,-0.0015,0,0.0234,0.0229,0.021,0.0198,0.0191,0.0163,0.0156,0.0134,0.0101,0.0099,0.0085,0.0052,0.0028,0.0019,0.0006,-0.0006,-0.001,-0.0002,-0.0011,-0.001,-0.001,-0.0024,-0.0025,-0.0015,-0.0015,-0.0015,-0.0015,0,0.0227,0.0225,0.0217,0.0202,0.0189,0.0176,0.0153,0.0137,0.0121,0.0108,0.0091,0.0058,0.0046,0.0023,0.0006,-0.0004,-0.001,-0.001,-0.0006,-0.0009,-0.0024,-0.0025,-0.0015,-0.0015,-0.0015,-0.0015,0,0,0.023,0.0217,0.0216,0.0222,0.0195,0.0188,0.0172,0.0159,0.0166,0.0125,0.0132,0.0082,0.0072,0.0062,0.0036,0.0016,-0.0004,0.0001,0.0,-0.0008,-0.0018,-0.0062,-0.0067,-0.0004,-0.0003,-0.0003,-0.0034,0,0.0232,0.0229,0.0218,0.0223,0.0223,0.0205,0.0201,0.0188,0.0174,0.0171,0.0137,0.013,0.0086,0.0081,0.0055,0.0015,-0.0004,0.0004,-0.0018,-0.0018,-0.0052,-0.0068,-0.0003,-0.0035,-0.0035,-0.0035,-0.0035,0,0.0228,0.0232,0.0238,0.0255,0.0254,0.0253,0.0261,0.0255,0.0243,0.0234,0.022,0.0196,0.0159,0.0126,0.0063,0.0072,0.0029,-0.0007,-0.0009,-0.0047,-0.0063,-0.0028,-0.0037,-0.0037,-0.0037,-0.0036,-0.0036,0,0.0248,0.025,0.0265,0.0265,0.0269,0.0277,0.0283,0.0277,0.0296,0.028,0.0291,0.0248,0.0234,0.0174,0.0076,0.0079,0.0005,0.0006,-0.007,-0.0074,-0.0025,-0.0025,-0.0026,-0.0026,-0.0026,-0.0026,-0.0026,0,0.0255,0.0269,0.0279,0.0287,0.032,0.0312,0.0349,0.0343,0.036,0.0391,0.0335,0.034,0.0246,0.0186,0.01,-0.0001,0.0026,-0.0071,-0.0084,-0.0026,-0.0025,-0.0026,-0.0026,-0.0027,-0.0027,-0.0027,-0.0027,0,0.0269,0.0271,0.0297,0.0316,0.0329,0.0354,0.0403,0.0434,0.0434,0.0471,0.047,0.0419,0.0333,0.0223,0.0117,0.0035,-0.0061,-0.0101,-0.0044,-0.0052,-0.0138,-0.0137,-0.017,-0.0172,-0.0173,-0.0174,-0.0175,0,0.0274,0.0286,0.0325,0.0352,0.0363,0.0406,0.0442,0.0468,0.0509,0.0515,0.054,0.0469,0.0412,0.0231,0.0105,-0.0063,-0.009,-0.0145,-0.0135,-0.0143,-0.0152,-0.0149,-0.0146,-0.0178,-0.0178,-0.0179,-0.0179,0,0.0291,0.0304,0.0329,0.0384,0.0429,0.0486,0.054,0.0579,0.0608,0.0613,0.0593,0.0488,0.0388,0.0236,0.0089,-0.0029,-0.0115,-0.0161,-0.0158,-0.0149,-0.0153,-0.016,-0.0156,-0.0184,-0.0184,-0.0183,-0.0183,0,0.0307,0.0332,0.0368,0.0418,0.0479,0.0542,0.057,0.0612,0.065,0.0658,0.0646,0.0522,0.0457,0.0254,0.0122,-0.0012,-0.0033,-0.0077,-0.0078,-0.0074,-0.0052,-0.0044,-0.0053,0,0,0,0,0,0.0321,0.0354,0.0402,0.0459,0.0519,0.0558,0.0629,0.0653,0.0684,0.0679,0.0667,0.0565,0.0361,0.0276,0.014,0.0095,-0.006,-0.0071,-0.0112,-0.0213,-0.0207,-0.0204,0,0,0,0,0,0,0.0333,0.0378,0.0404,0.0482,0.0528,0.0603,0.0651,0.0671,0.0672,0.0674,0.0575,0.0519,0.0331,0.0442,0.0135,0.0094,0.0045,-0.0162,-0.0165,-0.0217,-0.0211,-0.0206,-0.0201,0,0,0,0,0]}]]